Time,TemperatureF,DewpointF,PressureIn,WindDirection,WindDirectionDegrees,WindSpeedMPH,WindSpeedGustMPH,Humidity,HourlyPrecipIn,Conditions,Clouds,dailyrainin,SolarRadiationWatts/m^2,SoftwareType,DateUTC
2013-03-22 00:00:00,28.3,17.3,29.88,WSW,251,3.0,4.0,63,0.00,,,0.00,0,Wunderground v.1.15,2013-03-22 04:00:00,
2013-03-22 00:01:00,28.3,17.3,29.88,WSW,254,3.0,4.0,63,0.00,,,0.00,0,Wunderground v.1.15,2013-03-22 04:01:00,
2013-03-22 00:02:00,28.3,17.7,29.88,West,269,3.0,4.0,64,0.00,,,0.00,0,Wunderground v.1.15,2013-03-22 04:02:00,
2013-03-22 00:07:00,28.1,17.5,29.88,West,278,3.0,4.0,64,0.00,,,0.00,0,Wunderground v.1.15,2013-03-22 04:07:00,
2013-03-22 00:13:00,28.0,17.4,29.88,West,273,4.0,5.0,64,0.00,,,0.00,0,Wunderground v.1.15,2013-03-22 04:13:00,
2013-03-22 00:15:00,28.0,17.7,29.88,WNW,292,4.0,5.0,65,0.00,,,0.00,0,Wunderground v.1.15,2013-03-22 04:15:00,
2013-03-22 00:20:00,27.9,17.6,29.87,West,273,4.0,4.0,65,0.00,,,0.00,0,Wunderground v.1.15,2013-03-22 04:20:00,
2013-03-22 00:25:00,27.9,17.6,29.88,West,259,3.0,7.0,65,0.00,,,0.00,0,Wunderground v.1.15,2013-03-22 04:25:00,
2013-03-22 00:30:00,27.8,17.6,29.88,West,265,5.0,5.0,65,0.00,,,0.00,0,Wunderground v.1.15,2013-03-22 04:30:00,
2013-03-22 00:36:00,27.8,17.9,29.88,West,279,4.0,6.0,66,0.00,,,0.00,0,Wunderground v.1.15,2013-03-22 04:36:00,
2013-03-22 00:41:00,27.7,17.8,29.88,West,271,4.0,6.0,66,0.00,,,0.00,0,Wunderground v.1.15,2013-03-22 04:41:00,
2013-03-22 00:47:00,27.7,18.2,29.88,West,272,4.0,8.0,67,0.00,,,0.00,0,Wunderground v.1.15,2013-03-22 04:47:00,
2013-03-22 00:52:00,27.7,18.2,29.87,West,263,4.0,7.0,67,0.00,,,0.00,0,Wunderground v.1.15,2013-03-22 04:52:00,
2013-03-22 00:58:00,27.7,18.2,29.88,WNW,296,4.0,8.0,67,0.00,,,0.00,0,Wunderground v.1.15,2013-03-22 04:58:00,
2013-03-22 01:03:00,27.6,18.1,29.88,West,281,4.0,6.0,67,0.00,,,0.00,0,Wunderground v.1.15,2013-03-22 05:03:00,
2013-03-22 01:09:00,27.7,18.2,29.87,West,263,4.0,7.0,67,0.00,,,0.00,0,Wunderground v.1.15,2013-03-22 05:09:00,
2013-03-22 01:14:00,27.6,18.4,29.87,WNW,287,4.0,4.0,68,0.00,,,0.00,0,Wunderground v.1.15,2013-03-22 05:14:00,
2013-03-22 01:19:00,27.6,18.4,29.87,West,261,3.0,6.0,68,0.00,,,0.00,0,Wunderground v.1.15,2013-03-22 05:19:00,
2013-03-22 01:25:00,27.6,18.4,29.87,SW,234,4.0,7.0,68,0.00,,,0.00,0,Wunderground v.1.15,2013-03-22 05:25:00,
2013-03-22 01:31:00,27.6,18.4,29.88,SSW,209,5.0,5.0,68,0.00,,,0.00,0,Wunderground v.1.15,2013-03-22 05:31:00,
2013-03-22 01:37:00,27.7,18.5,29.88,West,265,3.0,6.0,68,0.00,,,0.00,0,Wunderground v.1.15,2013-03-22 05:37:00,
2013-03-22 01:43:00,27.7,18.5,29.88,West,261,3.0,6.0,68,0.00,,,0.00,0,Wunderground v.1.15,2013-03-22 05:43:00,
2013-03-22 01:49:00,27.7,18.8,29.88,West,270,4.0,6.0,69,0.00,,,0.00,0,Wunderground v.1.15,2013-03-22 05:49:00,
2013-03-22 01:54:00,27.7,18.8,29.88,SW,232,3.0,6.0,69,0.00,,,0.00,0,Wunderground v.1.15,2013-03-22 05:54:00,
2013-03-22 02:00:00,27.7,18.8,29.87,SW,226,4.0,6.0,69,0.00,,,0.00,0,Wunderground v.1.15,2013-03-22 06:00:00,
2013-03-22 02:06:00,27.8,18.9,29.87,NNW,331,4.0,6.0,69,0.00,,,0.00,0,Wunderground v.1.15,2013-03-22 06:06:00,
2013-03-22 02:11:00,27.8,18.9,29.88,ESE,104,3.0,4.0,69,0.00,,,0.00,0,Wunderground v.1.15,2013-03-22 06:11:00,
2013-03-22 02:17:00,27.8,18.9,29.87,West,259,3.0,7.0,69,0.00,,,0.00,0,Wunderground v.1.15,2013-03-22 06:17:00,
2013-03-22 02:23:00,27.9,19.4,29.87,West,274,5.0,9.0,70,0.00,,,0.00,0,Wunderground v.1.15,2013-03-22 06:23:00,
2013-03-22 02:28:00,28.0,19.5,29.87,West,277,5.0,9.0,70,0.00,,,0.00,0,Wunderground v.1.15,2013-03-22 06:28:00,
2013-03-22 02:34:00,28.1,19.6,29.87,NW,316,4.0,7.0,70,0.00,,,0.00,0,Wunderground v.1.15,2013-03-22 06:34:00,
2013-03-22 02:39:00,28.2,19.7,29.87,West,273,5.0,7.0,70,0.00,,,0.00,0,Wunderground v.1.15,2013-03-22 06:39:00,
2013-03-22 02:44:00,28.2,19.7,29.88,WNW,300,5.0,10.0,70,0.00,,,0.00,0,Wunderground v.1.15,2013-03-22 06:44:00,
2013-03-22 02:49:00,28.2,19.7,29.88,NW,306,5.0,10.0,70,0.00,,,0.00,0,Wunderground v.1.15,2013-03-22 06:49:00,
2013-03-22 02:54:00,28.2,19.7,29.88,NW,306,4.0,6.0,70,0.00,,,0.00,0,Wunderground v.1.15,2013-03-22 06:54:00,
2013-03-22 03:00:00,28.3,19.8,29.88,West,277,4.0,4.0,70,0.00,,,0.00,0,Wunderground v.1.15,2013-03-22 07:00:00,
2013-03-22 03:06:00,28.3,19.8,29.88,West,261,3.0,4.0,70,0.00,,,0.00,0,Wunderground v.1.15,2013-03-22 07:06:00,
2013-03-22 03:11:00,28.3,19.8,29.88,West,276,3.0,3.0,70,0.00,,,0.00,0,Wunderground v.1.15,2013-03-22 07:11:00,
2013-03-22 03:17:00,28.2,19.7,29.87,SSW,206,3.0,7.0,70,0.00,,,0.00,0,Wunderground v.1.15,2013-03-22 07:17:00,
2013-03-22 03:22:00,28.1,19.9,29.87,WSW,249,4.0,6.0,71,0.00,,,0.00,0,Wunderground v.1.15,2013-03-22 07:22:00,
2013-03-22 03:27:00,28.1,19.9,29.87,West,261,3.0,6.0,71,0.00,,,0.00,0,Wunderground v.1.15,2013-03-22 07:27:00,
2013-03-22 03:33:00,28.0,19.8,29.87,WSW,257,2.0,3.0,71,0.00,,,0.00,0,Wunderground v.1.15,2013-03-22 07:33:00,
2013-03-22 03:39:00,27.9,19.7,29.87,West,262,3.0,5.0,71,0.00,,,0.00,0,Wunderground v.1.15,2013-03-22 07:39:00,
2013-03-22 03:44:00,27.8,19.9,29.87,West,267,4.0,5.0,72,0.00,,,0.00,0,Wunderground v.1.15,2013-03-22 07:44:00,
2013-03-22 03:49:00,27.8,19.9,29.87,West,265,3.0,5.0,72,0.00,,,0.00,0,Wunderground v.1.15,2013-03-22 07:49:00,
2013-03-22 03:55:00,27.7,19.8,29.87,SSW,199,2.0,3.0,72,0.00,,,0.00,0,Wunderground v.1.15,2013-03-22 07:55:00,
2013-03-22 04:00:00,27.6,19.8,29.87,West,265,2.0,4.0,72,0.00,,,0.00,0,Wunderground v.1.15,2013-03-22 08:00:00,
2013-03-22 04:06:00,27.6,19.8,29.87,West,269,3.0,4.0,72,0.00,,,0.00,0,Wunderground v.1.15,2013-03-22 08:06:00,
2013-03-22 04:11:00,27.6,20.1,29.87,SE,135,2.0,3.0,73,0.00,,,0.00,0,Wunderground v.1.15,2013-03-22 08:11:00,
2013-03-22 04:16:00,27.4,20.2,29.87,West,265,3.0,5.0,74,0.00,,,0.00,0,Wunderground v.1.15,2013-03-22 08:16:00,
2013-03-22 04:21:00,27.4,20.2,29.87,West,271,2.0,4.0,74,0.00,,,0.00,0,Wunderground v.1.15,2013-03-22 08:21:00,
2013-03-22 04:27:00,27.4,20.5,29.87,West,271,3.0,7.0,75,0.00,,,0.00,0,Wunderground v.1.15,2013-03-22 08:27:00,
2013-03-22 04:33:00,27.4,20.8,29.87,West,272,3.0,5.0,76,0.00,,,0.00,0,Wunderground v.1.15,2013-03-22 08:33:00,
2013-03-22 04:39:00,27.4,21.1,29.87,WNW,286,4.0,5.0,77,0.00,,,0.00,0,Wunderground v.1.15,2013-03-22 08:39:00,
2013-03-22 04:44:00,27.2,20.9,29.87,West,262,3.0,5.0,77,0.00,,,0.00,0,Wunderground v.1.15,2013-03-22 08:44:00,
2013-03-22 04:49:00,27.1,21.2,29.87,West,265,2.0,5.0,78,0.00,,,0.00,0,Wunderground v.1.15,2013-03-22 08:49:00,
2013-03-22 04:55:00,26.9,21.3,29.87,WSW,243,2.0,4.0,79,0.00,,,0.00,0,Wunderground v.1.15,2013-03-22 08:55:00,
2013-03-22 05:00:00,26.8,21.5,29.87,West,261,2.0,2.0,80,0.00,,,0.00,0,Wunderground v.1.15,2013-03-22 09:00:00,
2013-03-22 05:06:00,26.7,21.7,29.87,West,277,2.0,4.0,81,0.00,,,0.00,0,Wunderground v.1.15,2013-03-22 09:06:00,
2013-03-22 05:12:00,26.6,21.6,29.87,West,267,2.0,5.0,81,0.00,,,0.00,0,Wunderground v.1.15,2013-03-22 09:12:00,
2013-03-22 05:17:00,26.7,21.4,29.87,WNW,298,3.0,5.0,80,0.00,,,0.00,0,Wunderground v.1.15,2013-03-22 09:17:00,
2013-03-22 05:22:00,26.8,21.5,29.87,WNW,285,3.0,3.0,80,0.00,,,0.00,0,Wunderground v.1.15,2013-03-22 09:22:00,
2013-03-22 05:28:00,26.8,21.5,29.87,West,279,4.0,5.0,80,0.00,,,0.00,0,Wunderground v.1.15,2013-03-22 09:28:00,
2013-03-22 05:33:00,26.9,21.3,29.87,West,281,4.0,7.0,79,0.00,,,0.00,0,Wunderground v.1.15,2013-03-22 09:33:00,
2013-03-22 05:39:00,26.9,21.6,29.87,WNW,293,4.0,7.0,80,0.00,,,0.00,0,Wunderground v.1.15,2013-03-22 09:39:00,
2013-03-22 05:45:00,26.8,21.5,29.88,WNW,296,4.0,7.0,80,0.00,,,0.00,0,Wunderground v.1.15,2013-03-22 09:45:00,
2013-03-22 05:50:00,26.9,21.6,29.88,WNW,302,3.0,3.0,80,0.00,,,0.00,0,Wunderground v.1.15,2013-03-22 09:50:00,
2013-03-22 05:55:00,26.9,21.3,29.88,West,277,3.0,3.0,79,0.00,,,0.00,0,Wunderground v.1.15,2013-03-22 09:55:00,
2013-03-22 06:00:00,27.0,21.4,29.88,WNW,291,3.0,3.0,79,0.00,,,0.00,0,Wunderground v.1.15,2013-03-22 10:00:00,
2013-03-22 06:06:00,27.0,21.4,29.88,West,275,3.0,3.0,79,0.00,,,0.00,0,Wunderground v.1.15,2013-03-22 10:06:00,
2013-03-22 06:12:00,27.1,21.2,29.88,West,279,3.0,4.0,78,0.00,,,0.00,0,Wunderground v.1.15,2013-03-22 10:12:00,
2013-03-22 06:18:00,27.3,21.3,29.89,WNW,298,3.0,6.0,78,0.00,,,0.00,0,Wunderground v.1.15,2013-03-22 10:18:00,
2013-03-22 06:24:00,27.3,21.3,29.89,West,273,3.0,4.0,78,0.00,,,0.00,0,Wunderground v.1.15,2013-03-22 10:24:00,
2013-03-22 06:30:00,27.2,21.2,29.89,WNW,301,3.0,3.0,78,0.00,,,0.00,0,Wunderground v.1.15,2013-03-22 10:30:00,
2013-03-22 06:35:00,27.1,21.2,29.90,WNW,294,4.0,4.0,78,0.00,,,0.00,0,Wunderground v.1.15,2013-03-22 10:35:00,
2013-03-22 06:41:00,27.2,21.2,29.90,WNW,285,3.0,3.0,78,0.00,,,0.00,0,Wunderground v.1.15,2013-03-22 10:41:00,
2013-03-22 06:47:00,27.3,21.3,29.90,West,268,3.0,3.0,78,0.00,,,0.00,0,Wunderground v.1.15,2013-03-22 10:47:00,
2013-03-22 06:52:00,27.4,21.1,29.90,West,261,2.0,3.0,77,0.00,,,0.00,0,Wunderground v.1.15,2013-03-22 10:52:00,
2013-03-22 06:58:00,27.4,21.1,29.90,WSW,257,2.0,4.0,77,0.00,,,0.00,0,Wunderground v.1.15,2013-03-22 10:58:00,
2013-03-22 07:03:00,27.4,20.8,29.90,WSW,254,2.0,4.0,76,0.00,,,0.00,0,Wunderground v.1.15,2013-03-22 11:03:00,
2013-03-22 07:08:00,27.3,20.7,29.90,WNW,291,3.0,5.0,76,0.00,,,0.00,5,Wunderground v.1.15,2013-03-22 11:08:00,
2013-03-22 07:15:00,27.2,20.6,29.91,WNW,290,3.0,4.0,76,0.00,,,0.00,9,Wunderground v.1.15,2013-03-22 11:15:00,
2013-03-22 07:21:00,27.3,20.7,29.91,West,259,2.0,4.0,76,0.00,,,0.00,11,Wunderground v.1.15,2013-03-22 11:21:00,
2013-03-22 07:27:00,27.4,20.8,29.91,WNW,296,3.0,5.0,76,0.00,,,0.00,14,Wunderground v.1.15,2013-03-22 11:27:00,
2013-03-22 07:33:00,27.4,20.5,29.91,West,271,4.0,7.0,75,0.00,,,0.00,16,Wunderground v.1.15,2013-03-22 11:33:00,
2013-03-22 07:38:00,27.4,20.5,29.92,NW,305,4.0,7.0,75,0.00,,,0.00,21,Wunderground v.1.15,2013-03-22 11:38:00,
2013-03-22 07:43:00,27.3,20.4,29.92,WNW,293,4.0,6.0,75,0.00,,,0.00,25,Wunderground v.1.15,2013-03-22 11:43:00,
2013-03-22 07:48:00,27.4,20.5,29.92,West,275,4.0,6.0,75,0.00,,,0.00,35,Wunderground v.1.15,2013-03-22 11:48:00,
2013-03-22 07:53:00,27.4,20.5,29.92,WNW,282,3.0,5.0,75,0.00,,,0.00,35,Wunderground v.1.15,2013-03-22 11:53:00,
2013-03-22 07:59:00,27.6,20.4,29.92,West,273,3.0,6.0,74,0.00,,,0.00,39,Wunderground v.1.15,2013-03-22 11:59:00,
2013-03-22 08:04:00,27.8,20.6,29.92,WNW,284,3.0,4.0,74,0.00,,,0.00,42,Wunderground v.1.15,2013-03-22 12:04:00,
2013-03-22 08:10:00,27.9,20.4,29.92,WNW,286,3.0,4.0,73,0.00,,,0.00,49,Wunderground v.1.15,2013-03-22 12:10:00,
2013-03-22 08:16:00,28.1,20.2,29.92,West,271,5.0,7.0,72,0.00,,,0.00,47,Wunderground v.1.15,2013-03-22 12:16:00,
2013-03-22 08:22:00,28.4,20.2,29.92,NW,304,5.0,5.0,71,0.00,,,0.00,81,Wunderground v.1.15,2013-03-22 12:22:00,
2013-03-22 08:27:00,28.6,20.1,29.92,West,263,4.0,5.0,70,0.00,,,0.00,91,Wunderground v.1.15,2013-03-22 12:27:00,
2013-03-22 08:33:00,29.0,20.1,29.93,West,268,4.0,7.0,69,0.00,,,0.00,67,Wunderground v.1.15,2013-03-22 12:33:00,
2013-03-22 08:39:00,29.1,19.8,29.92,WNW,290,6.0,7.0,68,0.00,,,0.00,65,Wunderground v.1.15,2013-03-22 12:39:00,
2013-03-22 08:44:00,29.3,20.0,29.92,WNW,286,5.0,6.0,68,0.00,,,0.00,46,Wunderground v.1.15,2013-03-22 12:44:00,
2013-03-22 08:49:00,29.5,20.2,29.92,WNW,288,5.0,6.0,68,0.00,,,0.00,46,Wunderground v.1.15,2013-03-22 12:49:00,
2013-03-22 08:55:00,29.8,20.2,29.92,WNW,296,5.0,9.0,67,0.00,,,0.00,42,Wunderground v.1.15,2013-03-22 12:55:00,
2013-03-22 09:00:00,30.0,20.0,29.92,NW,323,6.0,6.0,66,0.00,,,0.00,47,Wunderground v.1.15,2013-03-22 13:00:00,
2013-03-22 09:06:00,30.4,20.0,29.92,NW,309,7.0,9.0,65,0.00,,,0.00,47,Wunderground v.1.15,2013-03-22 13:06:00,
2013-03-22 09:12:00,30.7,19.6,29.92,WNW,301,7.0,7.0,63,0.00,,,0.00,47,Wunderground v.1.15,2013-03-22 13:12:00,
2013-03-22 09:17:00,30.9,19.8,29.92,West,276,8.0,12.0,63,0.00,,,0.00,120,Wunderground v.1.15,2013-03-22 13:17:00,
2013-03-22 09:23:00,31.2,19.7,29.93,WNW,284,8.0,8.0,62,0.00,,,0.00,399,Wunderground v.1.15,2013-03-22 13:23:00,
2013-03-22 09:29:00,31.5,19.2,29.92,NW,311,9.0,16.0,60,0.00,,,0.00,425,Wunderground v.1.15,2013-03-22 13:29:00,
2013-03-22 09:34:00,31.6,18.9,29.93,NNW,335,10.0,14.0,59,0.00,,,0.00,434,Wunderground v.1.15,2013-03-22 13:34:00,
2013-03-22 09:40:00,31.8,18.7,29.92,NW,317,10.0,10.0,58,0.00,,,0.00,455,Wunderground v.1.15,2013-03-22 13:40:00,
2013-03-22 09:46:00,32.1,19.0,29.92,NNW,333,8.0,10.0,58,0.00,,,0.00,471,Wunderground v.1.15,2013-03-22 13:46:00,
2013-03-22 09:52:00,32.3,18.3,29.92,WNW,296,7.0,7.0,56,0.00,,,0.00,496,Wunderground v.1.15,2013-03-22 13:52:00,
2013-03-22 09:58:00,32.4,18.4,29.92,NNW,342,9.0,14.0,56,0.00,,,0.00,548,Wunderground v.1.15,2013-03-22 13:58:00,
2013-03-22 10:03:00,32.8,18.4,29.93,WNW,303,11.0,11.0,55,0.00,,,0.00,564,Wunderground v.1.15,2013-03-22 14:03:00,
2013-03-22 10:09:00,33.0,17.7,29.93,NNW,344,10.0,15.0,53,0.00,,,0.00,571,Wunderground v.1.15,2013-03-22 14:09:00,
2013-03-22 10:14:00,32.9,17.6,29.93,NNW,345,11.0,15.0,53,0.00,,,0.00,316,Wunderground v.1.15,2013-03-22 14:14:00,
2013-03-22 10:19:00,33.4,18.5,29.93,WNW,293,9.0,16.0,54,0.00,,,0.00,436,Wunderground v.1.15,2013-03-22 14:19:00,
2013-03-22 10:25:00,32.9,18.5,29.93,NNW,332,9.0,15.0,55,0.00,,,0.00,267,Wunderground v.1.15,2013-03-22 14:25:00,
2013-03-22 10:30:00,32.8,18.4,29.93,NNW,338,10.0,12.0,55,0.00,,,0.00,274,Wunderground v.1.15,2013-03-22 14:30:00,
2013-03-22 10:35:00,32.5,18.5,29.93,NNW,327,11.0,16.0,56,0.00,,,0.00,332,Wunderground v.1.15,2013-03-22 14:35:00,
2013-03-22 10:41:00,32.9,18.5,29.93,West,264,11.0,11.0,55,0.00,,,0.00,589,Wunderground v.1.15,2013-03-22 14:41:00,
2013-03-22 10:46:00,33.2,19.2,29.93,NW,325,8.0,11.0,56,0.00,,,0.00,288,Wunderground v.1.15,2013-03-22 14:46:00,
2013-03-22 10:51:00,33.1,18.2,29.93,NNW,335,10.0,22.0,54,0.00,,,0.00,264,Wunderground v.1.15,2013-03-22 14:51:00,
2013-03-22 10:56:00,33.0,18.6,29.93,NW,321,11.0,22.0,55,0.00,,,0.00,236,Wunderground v.1.15,2013-03-22 14:56:00,
2013-03-22 11:02:00,33.0,18.1,29.93,West,280,11.0,16.0,54,0.00,,,0.00,323,Wunderground v.1.15,2013-03-22 15:02:00,
2013-03-22 11:07:00,32.9,18.1,29.93,NW,313,12.0,23.0,54,0.00,,,0.00,244,Wunderground v.1.15,2013-03-22 15:07:00,
2013-03-22 11:13:00,33.3,19.3,29.93,WNW,302,10.0,12.0,56,0.00,,,0.00,334,Wunderground v.1.15,2013-03-22 15:13:00,
2013-03-22 11:19:00,34.1,20.0,29.93,NNW,342,9.0,13.0,56,0.00,,,0.00,844,Wunderground v.1.15,2013-03-22 15:19:00,
2013-03-22 11:24:00,34.8,19.8,29.93,West,275,9.0,11.0,54,0.00,,,0.00,200,Wunderground v.1.15,2013-03-22 15:24:00,
2013-03-22 11:29:00,34.8,19.4,29.93,SW,236,9.0,11.0,53,0.00,,,0.00,427,Wunderground v.1.15,2013-03-22 15:29:00,
2013-03-22 11:34:00,35.0,19.6,29.93,North,350,8.0,10.0,53,0.00,,,0.00,821,Wunderground v.1.15,2013-03-22 15:34:00,
2013-03-22 11:39:00,35.3,19.4,29.92,WNW,301,9.0,16.0,52,0.00,,,0.00,821,Wunderground v.1.15,2013-03-22 15:39:00,
2013-03-22 11:45:00,34.9,19.0,29.93,NW,313,10.0,11.0,52,0.00,,,0.00,139,Wunderground v.1.15,2013-03-22 15:45:00,
2013-03-22 11:50:00,34.0,18.6,29.93,NW,308,10.0,10.0,53,0.00,,,0.00,163,Wunderground v.1.15,2013-03-22 15:50:00,
2013-03-22 11:55:00,33.6,18.3,29.93,West,279,11.0,13.0,53,0.00,,,0.00,192,Wunderground v.1.15,2013-03-22 15:55:00,
2013-03-22 12:00:00,33.5,18.2,29.93,NNW,329,10.0,16.0,53,0.00,,,0.00,246,Wunderground v.1.15,2013-03-22 16:00:00,
2013-03-22 12:06:00,33.6,18.3,29.93,WNW,290,11.0,18.0,53,0.00,,,0.00,309,Wunderground v.1.15,2013-03-22 16:06:00,
2013-03-22 12:12:00,34.0,18.2,29.93,NW,311,11.0,14.0,52,0.00,,,0.00,306,Wunderground v.1.15,2013-03-22 16:12:00,
2013-03-22 12:18:00,34.3,18.0,29.93,WNW,288,10.0,14.0,51,0.00,,,0.00,287,Wunderground v.1.15,2013-03-22 16:18:00,
2013-03-22 12:24:00,34.5,17.8,29.93,NNW,342,10.0,13.0,50,0.00,,,0.00,308,Wunderground v.1.15,2013-03-22 16:24:00,
2013-03-22 12:29:00,34.4,17.2,29.93,NW,323,10.0,13.0,49,0.00,,,0.00,274,Wunderground v.1.15,2013-03-22 16:29:00,
2013-03-22 12:35:00,34.4,17.7,29.93,NNW,344,10.0,11.0,50,0.00,,,0.00,172,Wunderground v.1.15,2013-03-22 16:35:00,
2013-03-22 12:41:00,34.4,18.1,29.93,NNW,344,9.0,12.0,51,0.00,,,0.00,301,Wunderground v.1.15,2013-03-22 16:41:00,
2013-03-22 12:46:00,34.4,18.1,29.93,WNW,294,9.0,12.0,51,0.00,,,0.00,287,Wunderground v.1.15,2013-03-22 16:46:00,
2013-03-22 12:52:00,34.6,18.3,29.93,WNW,285,8.0,9.0,51,0.00,,,0.00,283,Wunderground v.1.15,2013-03-22 16:52:00,
2013-03-22 12:57:00,34.7,18.9,29.93,WNW,284,8.0,11.0,52,0.00,,,0.00,260,Wunderground v.1.15,2013-03-22 16:57:00,
2013-03-22 13:02:00,34.9,19.0,29.93,NW,321,8.0,14.0,52,0.00,,,0.00,225,Wunderground v.1.15,2013-03-22 17:02:00,
2013-03-22 13:07:00,34.5,19.1,29.93,NNW,332,10.0,16.0,53,0.00,,,0.00,265,Wunderground v.1.15,2013-03-22 17:07:00,
2013-03-22 13:13:00,34.5,19.1,29.93,WNW,286,11.0,12.0,53,0.00,,,0.00,272,Wunderground v.1.15,2013-03-22 17:13:00,
2013-03-22 13:18:00,34.8,18.9,29.93,NW,304,10.0,13.0,52,0.00,,,0.00,185,Wunderground v.1.15,2013-03-22 17:18:00,
2013-03-22 13:24:00,34.9,19.0,29.93,WNW,302,9.0,10.0,52,0.00,,,0.00,229,Wunderground v.1.15,2013-03-22 17:24:00,
2013-03-22 13:30:00,35.1,20.1,29.93,WNW,295,7.0,10.0,54,0.00,,,0.00,318,Wunderground v.1.15,2013-03-22 17:30:00,
2013-03-22 13:36:00,35.3,19.9,29.93,NNW,331,7.0,10.0,53,0.00,,,0.00,322,Wunderground v.1.15,2013-03-22 17:36:00,
2013-03-22 13:42:00,35.6,19.7,29.92,NW,309,6.0,7.0,52,0.00,,,0.00,244,Wunderground v.1.15,2013-03-22 17:42:00,
2013-03-22 13:48:00,35.4,19.5,29.92,WNW,288,8.0,11.0,52,0.00,,,0.00,338,Wunderground v.1.15,2013-03-22 17:48:00,
2013-03-22 13:54:00,35.7,20.2,29.92,NW,319,8.0,10.0,53,0.00,,,0.00,397,Wunderground v.1.15,2013-03-22 17:54:00,
2013-03-22 13:59:00,36.0,19.6,29.92,WNW,294,7.0,12.0,51,0.00,,,0.00,287,Wunderground v.1.15,2013-03-22 17:59:00,
2013-03-22 14:05:00,35.8,19.4,29.92,NNW,333,8.0,14.0,51,0.00,,,0.00,272,Wunderground v.1.15,2013-03-22 18:05:00,
2013-03-22 14:11:00,35.7,19.8,29.92,WNW,302,10.0,10.0,52,0.00,,,0.00,334,Wunderground v.1.15,2013-03-22 18:11:00,
2013-03-22 14:16:00,36.0,19.1,29.92,NNW,333,9.0,10.0,50,0.00,,,0.00,318,Wunderground v.1.15,2013-03-22 18:16:00,
2013-03-22 14:21:00,35.9,19.0,29.92,WNW,299,8.0,8.0,50,0.00,,,0.00,258,Wunderground v.1.15,2013-03-22 18:21:00,
2013-03-22 14:27:00,36.1,19.2,29.92,West,270,8.0,11.0,50,0.00,,,0.00,320,Wunderground v.1.15,2013-03-22 18:27:00,
2013-03-22 14:33:00,36.1,18.3,29.91,NNW,337,8.0,12.0,48,0.00,,,0.00,399,Wunderground v.1.15,2013-03-22 18:33:00,
2013-03-22 14:38:00,36.5,19.1,29.91,NW,311,8.0,12.0,49,0.00,,,0.00,353,Wunderground v.1.15,2013-03-22 18:38:00,
2013-03-22 14:44:00,36.9,19.5,29.92,NW,308,8.0,11.0,49,0.00,,,0.00,371,Wunderground v.1.15,2013-03-22 18:44:00,
2013-03-22 14:50:00,37.4,20.0,29.91,WNW,298,7.0,7.0,49,0.00,,,0.00,454,Wunderground v.1.15,2013-03-22 18:50:00,
2013-03-22 14:56:00,38.1,20.6,29.91,West,270,7.0,11.0,49,0.00,,,0.00,770,Wunderground v.1.15,2013-03-22 18:56:00,
2013-03-22 15:01:00,37.9,19.4,29.91,West,263,8.0,9.0,47,0.00,,,0.00,425,Wunderground v.1.15,2013-03-22 19:01:00,
2013-03-22 15:07:00,37.6,19.2,29.92,West,271,8.0,10.0,47,0.00,,,0.00,336,Wunderground v.1.15,2013-03-22 19:07:00,
2013-03-22 15:12:00,37.4,19.5,29.92,WNW,288,8.0,9.0,48,0.00,,,0.00,480,Wunderground v.1.15,2013-03-22 19:12:00,
2013-03-22 15:17:00,37.5,19.6,29.92,NW,304,7.0,10.0,48,0.00,,,0.00,272,Wunderground v.1.15,2013-03-22 19:17:00,
2013-03-22 15:23:00,37.5,19.1,29.92,NW,313,7.0,9.0,47,0.00,,,0.00,278,Wunderground v.1.15,2013-03-22 19:23:00,
2013-03-22 15:28:00,37.4,19.5,29.92,NW,319,8.0,14.0,48,0.00,,,0.00,269,Wunderground v.1.15,2013-03-22 19:28:00,
2013-03-22 15:34:00,37.1,19.2,29.92,WNW,282,9.0,13.0,48,0.00,,,0.00,257,Wunderground v.1.15,2013-03-22 19:34:00,
2013-03-22 15:39:00,37.2,19.3,29.92,NNW,330,9.0,13.0,48,0.00,,,0.00,260,Wunderground v.1.15,2013-03-22 19:39:00,
2013-03-22 15:45:00,37.3,19.4,29.92,NW,306,8.0,9.0,48,0.00,,,0.00,267,Wunderground v.1.15,2013-03-22 19:45:00,
2013-03-22 15:50:00,37.0,19.1,29.92,WNW,296,9.0,9.0,48,0.00,,,0.00,265,Wunderground v.1.15,2013-03-22 19:50:00,
2013-03-22 15:55:00,37.3,19.9,29.92,WNW,301,8.0,9.0,49,0.00,,,0.00,227,Wunderground v.1.15,2013-03-22 19:55:00,
2013-03-22 16:00:00,37.4,20.0,29.92,West,279,7.0,7.0,49,0.00,,,0.00,309,Wunderground v.1.15,2013-03-22 20:00:00,
2013-03-22 16:06:00,37.4,20.4,29.92,West,277,8.0,11.0,50,0.00,,,0.00,246,Wunderground v.1.15,2013-03-22 20:06:00,
2013-03-22 16:12:00,37.1,21.1,29.92,WNW,298,9.0,10.0,52,0.00,,,0.00,404,Wunderground v.1.15,2013-03-22 20:12:00,
2013-03-22 16:18:00,37.8,21.7,29.92,East,101,7.0,10.0,52,0.00,,,0.00,251,Wunderground v.1.15,2013-03-22 20:18:00,
2013-03-22 16:23:00,37.6,21.1,29.92,SSW,211,6.0,8.0,51,0.00,,,0.00,232,Wunderground v.1.15,2013-03-22 20:23:00,
2013-03-22 16:28:00,37.4,20.9,29.92,SSE,155,6.0,9.0,51,0.00,,,0.00,193,Wunderground v.1.15,2013-03-22 20:28:00,
2013-03-22 16:34:00,37.1,21.1,29.92,NW,308,6.0,13.0,52,0.00,,,0.00,151,Wunderground v.1.15,2013-03-22 20:34:00,
2013-03-22 16:40:00,37.0,21.0,29.93,West,279,8.0,8.0,52,0.00,,,0.00,178,Wunderground v.1.15,2013-03-22 20:40:00,
2013-03-22 16:45:00,36.9,20.9,29.93,West,259,9.0,14.0,52,0.00,,,0.00,146,Wunderground v.1.15,2013-03-22 20:45:00,
2013-03-22 16:51:00,36.8,20.8,29.93,WSW,255,8.0,9.0,52,0.00,,,0.00,155,Wunderground v.1.15,2013-03-22 20:51:00,
2013-03-22 16:56:00,36.8,20.8,29.93,SW,214,8.0,11.0,52,0.00,,,0.00,160,Wunderground v.1.15,2013-03-22 20:56:00,
2013-03-22 17:02:00,37.1,21.1,29.93,WNW,298,7.0,12.0,52,0.00,,,0.00,181,Wunderground v.1.15,2013-03-22 21:02:00,
2013-03-22 17:07:00,37.0,20.5,29.93,WNW,290,7.0,12.0,51,0.00,,,0.00,171,Wunderground v.1.15,2013-03-22 21:07:00,
2013-03-22 17:13:00,37.1,21.1,29.93,West,278,7.0,12.0,52,0.00,,,0.00,146,Wunderground v.1.15,2013-03-22 21:13:00,
2013-03-22 17:18:00,37.3,20.8,29.94,WSW,253,7.0,12.0,51,0.00,,,0.00,134,Wunderground v.1.15,2013-03-22 21:18:00,
2013-03-22 17:24:00,37.3,20.8,29.93,WSW,248,7.0,10.0,51,0.00,,,0.00,105,Wunderground v.1.15,2013-03-22 21:24:00,
2013-03-22 17:30:00,37.1,20.6,29.94,WSW,257,7.0,7.0,51,0.00,,,0.00,72,Wunderground v.1.15,2013-03-22 21:30:00,
2013-03-22 17:35:00,37.0,21.0,29.94,WNW,290,8.0,13.0,52,0.00,,,0.00,77,Wunderground v.1.15,2013-03-22 21:35:00,
2013-03-22 17:41:00,37.0,20.5,29.94,WNW,293,7.0,7.0,51,0.00,,,0.00,76,Wunderground v.1.15,2013-03-22 21:41:00,
2013-03-22 17:46:00,37.1,21.1,29.95,West,267,7.0,8.0,52,0.00,,,0.00,76,Wunderground v.1.15,2013-03-22 21:46:00,
2013-03-22 17:52:00,36.9,21.3,29.95,WNW,295,6.0,7.0,53,0.00,,,0.00,70,Wunderground v.1.15,2013-03-22 21:52:00,
2013-03-22 17:57:00,36.8,21.3,29.95,West,272,6.0,8.0,53,0.00,,,0.00,58,Wunderground v.1.15,2013-03-22 21:57:00,
2013-03-22 18:02:00,36.8,21.3,29.95,WNW,282,6.0,9.0,53,0.00,,,0.00,44,Wunderground v.1.15,2013-03-22 22:02:00,
2013-03-22 18:07:00,36.5,21.4,29.96,NNW,343,7.0,13.0,54,0.00,,,0.00,42,Wunderground v.1.15,2013-03-22 22:07:00,
2013-03-22 18:12:00,36.4,22.2,29.96,West,274,7.0,8.0,56,0.00,,,0.00,47,Wunderground v.1.15,2013-03-22 22:12:00,
2013-03-22 18:18:00,36.2,22.4,29.96,West,267,7.0,10.0,57,0.00,,,0.00,33,Wunderground v.1.15,2013-03-22 22:18:00,
2013-03-22 18:23:00,35.9,22.5,29.97,WNW,294,7.0,10.0,58,0.00,,,0.00,35,Wunderground v.1.15,2013-03-22 22:23:00,
2013-03-22 18:29:00,35.7,22.8,29.97,West,279,8.0,10.0,59,0.00,,,0.00,33,Wunderground v.1.15,2013-03-22 22:29:00,
2013-03-22 18:34:00,35.7,22.8,29.97,WNW,300,8.0,8.0,59,0.00,,,0.00,28,Wunderground v.1.15,2013-03-22 22:34:00,
2013-03-22 18:40:00,35.5,23.0,29.97,WSW,253,7.0,10.0,60,0.00,,,0.00,21,Wunderground v.1.15,2013-03-22 22:40:00,
2013-03-22 18:47:00,35.3,23.2,29.98,West,266,7.0,12.0,61,0.00,,,0.00,18,Wunderground v.1.15,2013-03-22 22:47:00,
2013-03-22 18:52:00,35.3,22.8,29.98,WNW,292,6.0,7.0,60,0.00,,,0.00,18,Wunderground v.1.15,2013-03-22 22:52:00,
2013-03-22 18:58:00,35.0,22.5,29.98,West,271,8.0,13.0,60,0.00,,,0.00,16,Wunderground v.1.15,2013-03-22 22:58:00,
2013-03-22 19:03:00,34.9,22.4,29.98,WNW,288,8.0,10.0,60,0.00,,,0.00,12,Wunderground v.1.15,2013-03-22 23:03:00,
2013-03-22 19:08:00,34.8,22.3,29.99,WNW,291,8.0,10.0,60,0.00,,,0.00,11,Wunderground v.1.15,2013-03-22 23:08:00,
2013-03-22 19:14:00,34.8,22.7,29.99,WSW,257,7.0,9.0,61,0.00,,,0.00,5,Wunderground v.1.15,2013-03-22 23:14:00,
2013-03-22 19:19:00,34.6,22.5,29.99,West,280,6.0,12.0,61,0.00,,,0.00,0,Wunderground v.1.15,2013-03-22 23:19:00,
2013-03-22 19:24:00,34.3,22.2,29.99,West,268,7.0,8.0,61,0.00,,,0.00,0,Wunderground v.1.15,2013-03-22 23:24:00,
2013-03-22 19:30:00,34.0,22.0,29.99,WSW,257,7.0,9.0,61,0.00,,,0.00,0,Wunderground v.1.15,2013-03-22 23:30:00,
2013-03-22 19:35:00,33.8,22.1,29.99,West,277,7.0,10.0,62,0.00,,,0.00,0,Wunderground v.1.15,2013-03-22 23:35:00,
2013-03-22 19:41:00,33.6,22.0,30.00,WNW,284,7.0,9.0,62,0.00,,,0.00,0,Wunderground v.1.15,2013-03-22 23:41:00,
2013-03-22 19:46:00,33.5,22.2,30.00,West,280,6.0,9.0,63,0.00,,,0.00,0,Wunderground v.1.15,2013-03-22 23:46:00,
2013-03-22 19:52:00,33.3,22.1,30.00,West,279,6.0,8.0,63,0.00,,,0.00,0,Wunderground v.1.15,2013-03-22 23:52:00,
2013-03-22 19:58:00,33.2,22.0,30.00,West,277,6.0,8.0,63,0.00,,,0.00,0,Wunderground v.1.15,2013-03-22 23:58:00,
2013-03-22 20:03:00,33.2,22.3,30.01,West,266,5.0,6.0,64,0.00,,,0.00,0,Wunderground v.1.15,2013-03-23 00:03:00,
2013-03-22 20:09:00,33.1,22.2,30.01,WNW,286,5.0,6.0,64,0.00,,,0.00,0,Wunderground v.1.15,2013-03-23 00:09:00,
2013-03-22 20:14:00,33.0,22.1,30.01,WSW,257,5.0,7.0,64,0.00,,,0.00,0,Wunderground v.1.15,2013-03-23 00:14:00,
2013-03-22 20:19:00,33.0,22.1,30.01,WSW,256,5.0,8.0,64,0.00,,,0.00,0,Wunderground v.1.15,2013-03-23 00:19:00,
2013-03-22 20:24:00,33.0,22.1,30.01,West,260,6.0,11.0,64,0.00,,,0.00,0,Wunderground v.1.15,2013-03-23 00:24:00,
2013-03-22 20:30:00,33.1,22.2,30.01,WNW,290,6.0,6.0,64,0.00,,,0.00,0,Wunderground v.1.15,2013-03-23 00:30:00,
2013-03-22 20:36:00,33.0,22.5,30.01,WNW,301,5.0,6.0,65,0.00,,,0.00,0,Wunderground v.1.15,2013-03-23 00:36:00,
2013-03-22 20:42:00,33.1,22.2,30.02,WNW,291,5.0,9.0,64,0.00,,,0.00,0,Wunderground v.1.15,2013-03-23 00:42:00,
2013-03-22 20:48:00,33.1,22.2,30.02,West,267,5.0,11.0,64,0.00,,,0.00,0,Wunderground v.1.15,2013-03-23 00:48:00,
2013-03-22 20:54:00,33.1,22.2,30.02,WNW,302,5.0,6.0,64,0.00,,,0.00,0,Wunderground v.1.15,2013-03-23 00:54:00,
2013-03-22 21:00:00,33.0,22.1,30.02,WSW,258,5.0,5.0,64,0.00,,,0.00,0,Wunderground v.1.15,2013-03-23 01:00:00,
2013-03-22 21:06:00,33.1,22.2,30.03,WSW,245,5.0,10.0,64,0.00,,,0.00,0,Wunderground v.1.15,2013-03-23 01:06:00,
2013-03-22 21:11:00,33.0,21.8,30.03,WNW,290,5.0,5.0,63,0.00,,,0.00,0,Wunderground v.1.15,2013-03-23 01:11:00,
2013-03-22 21:16:00,33.0,21.8,30.03,WNW,283,4.0,6.0,63,0.00,,,0.00,0,Wunderground v.1.15,2013-03-23 01:16:00,
2013-03-22 21:22:00,33.0,21.8,30.03,West,277,4.0,5.0,63,0.00,,,0.00,0,Wunderground v.1.15,2013-03-23 01:22:00,
2013-03-22 21:27:00,33.0,21.8,30.03,WNW,300,4.0,5.0,63,0.00,,,0.00,0,Wunderground v.1.15,2013-03-23 01:27:00,
2013-03-22 21:33:00,33.0,22.1,30.03,West,281,4.0,6.0,64,0.00,,,0.00,0,Wunderground v.1.15,2013-03-23 01:33:00,
2013-03-22 21:39:00,33.0,21.8,30.03,West,281,4.0,6.0,63,0.00,,,0.00,0,Wunderground v.1.15,2013-03-23 01:39:00,
2013-03-22 21:44:00,33.0,21.8,30.03,West,279,5.0,9.0,63,0.00,,,0.00,0,Wunderground v.1.15,2013-03-23 01:44:00,
2013-03-22 21:49:00,32.9,21.7,30.03,West,277,6.0,9.0,63,0.00,,,0.00,0,Wunderground v.1.15,2013-03-23 01:49:00,
2013-03-22 21:54:00,32.8,21.6,30.03,NW,319,6.0,7.0,63,0.00,,,0.00,0,Wunderground v.1.15,2013-03-23 01:54:00,
2013-03-22 21:59:00,32.8,21.6,30.03,West,269,7.0,7.0,63,0.00,,,0.00,0,Wunderground v.1.15,2013-03-23 01:59:00,
2013-03-22 22:05:00,32.8,21.2,30.03,WNW,296,6.0,7.0,62,0.00,,,0.00,0,Wunderground v.1.15,2013-03-23 02:05:00,
2013-03-22 22:11:00,32.8,21.6,30.04,NW,313,5.0,5.0,63,0.00,,,0.00,0,Wunderground v.1.15,2013-03-23 02:11:00,
2013-03-22 22:16:00,32.8,21.6,30.04,NW,309,5.0,8.0,63,0.00,,,0.00,0,Wunderground v.1.15,2013-03-23 02:16:00,
2013-03-22 22:21:00,32.7,21.5,30.04,NNW,348,6.0,7.0,63,0.00,,,0.00,0,Wunderground v.1.15,2013-03-23 02:21:00,
2013-03-22 22:27:00,32.8,21.6,30.04,WNW,283,6.0,7.0,63,0.00,,,0.00,0,Wunderground v.1.15,2013-03-23 02:27:00,
2013-03-22 22:32:00,32.8,21.6,30.04,NW,310,5.0,5.0,63,0.00,,,0.00,0,Wunderground v.1.15,2013-03-23 02:32:00,
2013-03-22 22:38:00,32.7,21.9,30.04,NW,326,6.0,6.0,64,0.00,,,0.00,0,Wunderground v.1.15,2013-03-23 02:38:00,
2013-03-22 22:44:00,32.6,21.8,30.04,WNW,292,6.0,12.0,64,0.00,,,0.00,0,Wunderground v.1.15,2013-03-23 02:44:00,
2013-03-22 22:49:00,32.5,21.7,30.04,NW,310,7.0,12.0,64,0.00,,,0.00,0,Wunderground v.1.15,2013-03-23 02:49:00,
2013-03-22 22:55:00,32.5,21.7,30.04,WNW,296,7.0,8.0,64,0.00,,,0.00,0,Wunderground v.1.15,2013-03-23 02:55:00,
2013-03-22 23:01:00,32.4,21.6,30.04,NW,310,7.0,11.0,64,0.00,,,0.00,0,Wunderground v.1.15,2013-03-23 03:01:00,
2013-03-22 23:07:00,32.4,21.6,30.04,West,262,7.0,11.0,64,0.00,,,0.00,0,Wunderground v.1.15,2013-03-23 03:07:00,
2013-03-22 23:12:00,32.4,21.6,30.04,WNW,290,7.0,10.0,64,0.00,,,0.00,0,Wunderground v.1.15,2013-03-23 03:12:00,
2013-03-22 23:17:00,32.4,21.9,30.04,West,273,7.0,10.0,65,0.00,,,0.00,0,Wunderground v.1.15,2013-03-23 03:17:00,
2013-03-22 23:22:00,32.4,21.6,30.04,WNW,286,6.0,7.0,64,0.00,,,0.00,0,Wunderground v.1.15,2013-03-23 03:22:00,
2013-03-22 23:27:00,32.4,21.6,30.04,West,261,6.0,8.0,64,0.00,,,0.00,0,Wunderground v.1.15,2013-03-23 03:27:00,
2013-03-22 23:33:00,32.3,21.5,30.04,West,276,7.0,9.0,64,0.00,,,0.00,0,Wunderground v.1.15,2013-03-23 03:33:00,
2013-03-22 23:38:00,32.3,21.5,30.04,WNW,299,7.0,9.0,64,0.00,,,0.00,0,Wunderground v.1.15,2013-03-23 03:38:00,
2013-03-22 23:43:00,32.3,21.5,30.04,WNW,288,6.0,7.0,64,0.00,,,0.00,0,Wunderground v.1.15,2013-03-23 03:43:00,
2013-03-22 23:48:00,32.3,21.5,30.04,West,267,6.0,7.0,64,0.00,,,0.00,0,Wunderground v.1.15,2013-03-23 03:48:00,
2013-03-22 23:53:00,32.3,21.5,30.04,NNW,329,6.0,6.0,64,0.00,,,0.00,0,Wunderground v.1.15,2013-03-23 03:53:00,
2013-03-22 23:59:00,32.2,21.4,30.04,NNW,330,7.0,12.0,64,0.00,,,0.00,0,Wunderground v.1.15,2013-03-23 03:59:00,